You are listening to:
KSWF Tower - Newburgh, New York, United States

KSWF 051845Z 28012G20KT 10SM SCT060 28/16 A3002

If stream doesn't start automatically press the play button
If stream stops then reload player then press play